TimeAKDT,TemperatureF,Dew PointF,Humidity,Sea Level PressureIn,VisibilityMPH,Wind Direction,Wind SpeedMPH,Gust SpeedMPH,PrecipitationIn,Events,Conditions,WindDirDegrees,DateUTC
12:16 AM,-4.0,-16.6,55,30.22,10.0,ENE,6.9,-,N/A,,Clear,70,2013-04-02 08:16:00
12:36 AM,-4.0,-9999,N/A,30.21,10.0,ENE,6.9,-,N/A,,Clear,60,2013-04-02 08:36:00
12:56 AM,-5.8,-14.8,65,30.21,10.0,ENE,5.8,-,N/A,,Clear,60,2013-04-02 08:56:00
1:16 AM,-5.8,-16.6,60,30.21,10.0,ENE,6.9,-,N/A,,Clear,60,2013-04-02 09:16:00
1:36 AM,-5.8,-9.4,84,30.22,10.0,ENE,5.8,-,N/A,,Clear,70,2013-04-02 09:36:00
1:56 AM,-5.8,-11.2,77,30.22,10.0,ENE,8.1,-,N/A,,Clear,60,2013-04-02 09:56:00
2:16 AM,-5.8,-18.4,55,30.22,10.0,ENE,5.8,-,N/A,,Clear,70,2013-04-02 10:16:00
2:36 AM,-5.8,-14.8,65,30.22,10.0,ENE,5.8,-,N/A,,Clear,70,2013-04-02 10:36:00
2:56 AM,-5.8,-9999,N/A,30.22,10.0,East,6.9,-,N/A,,Clear,80,2013-04-02 10:56:00
3:16 AM,-5.8,-9999,N/A,30.22,10.0,East,8.1,-,N/A,,Clear,80,2013-04-02 11:16:00
3:36 AM,-5.8,-9999,N/A,30.22,10.0,East,8.1,-,N/A,,Clear,80,2013-04-02 11:36:00
3:56 AM,-7.6,-9999,N/A,30.22,10.0,East,6.9,-,N/A,,Clear,80,2013-04-02 11:56:00
4:16 AM,-7.6,-31.0,31,30.22,10.0,East,5.8,-,N/A,,Clear,100,2013-04-02 12:16:00
4:36 AM,-9.4,-9999,N/A,30.22,10.0,East,4.6,-,N/A,,Clear,100,2013-04-02 12:36:00
4:56 AM,-11.2,-9999,N/A,30.22,10.0,Calm,Calm,-,N/A,,Clear,0,2013-04-02 12:56:00
5:16 AM,-9.4,-9999,N/A,30.22,10.0,Calm,Calm,-,N/A,,Clear,0,2013-04-02 13:16:00
5:36 AM,-9.4,-29.2,37,30.22,10.0,East,3.5,-,N/A,,Clear,90,2013-04-02 13:36:00
5:56 AM,-11.2,-27.4,45,30.22,10.0,East,5.8,-,N/A,,Clear,100,2013-04-02 13:56:00
6:36 AM,-11.2,-29.2,41,30.22,10.0,ESE,4.6,-,N/A,,Clear,110,2013-04-02 14:36:00
6:56 AM,-9.4,-25.6,45,30.22,10.0,SE,3.5,-,N/A,,Clear,130,2013-04-02 14:56:00
7:16 AM,-11.2,-29.2,41,30.22,10.0,Calm,Calm,-,N/A,,Clear,0,2013-04-02 15:16:00
7:36 AM,-13.0,-27.4,49,30.22,10.0,Calm,Calm,-,N/A,,Clear,0,2013-04-02 15:36:00
7:56 AM,-13.0,-27.4,49,30.22,10.0,Calm,Calm,-,N/A,,Clear,0,2013-04-02 15:56:00
8:16 AM,-13.0,-25.6,53,30.22,10.0,Calm,Calm,-,N/A,,Clear,0,2013-04-02 16:16:00
8:36 AM,-11.2,-23.8,54,30.23,10.0,East,4.6,-,N/A,,Clear,80,2013-04-02 16:36:00
8:56 AM,-13.0,-25.6,53,30.23,10.0,East,4.6,-,N/A,,Clear,90,2013-04-02 16:56:00
9:16 AM,-11.2,-18.4,70,30.23,10.0,East,4.6,-,N/A,,Clear,90,2013-04-02 17:16:00
9:36 AM,-11.2,-23.8,54,30.23,10.0,East,3.5,-,N/A,,Clear,100,2013-04-02 17:36:00
9:56 AM,-11.2,-16.6,77,30.23,10.0,SSE,3.5,-,N/A,,Clear,150,2013-04-02 17:56:00
10:16 AM,-11.2,-23.8,54,30.23,10.0,Calm,Calm,-,N/A,,Clear,0,2013-04-02 18:16:00
10:36 AM,-11.2,-18.4,70,30.24,10.0,Calm,Calm,-,N/A,,Clear,0,2013-04-02 18:36:00
10:56 AM,-11.2,-18.4,70,30.24,10.0,Calm,Calm,-,N/A,,Clear,0,2013-04-02 18:56:00
11:16 AM,-11.2,-20.2,64,30.24,10.0,Calm,Calm,-,N/A,,Clear,0,2013-04-02 19:16:00
11:36 AM,-9.4,-14.8,77,30.25,10.0,Calm,Calm,-,N/A,,Clear,0,2013-04-02 19:36:00
11:56 AM,-7.6,-9.4,92,30.25,10.0,Calm,Calm,-,N/A,,Clear,0,2013-04-02 19:56:00
12:16 PM,-5.8,-9999,N/A,30.25,10.0,Calm,Calm,-,N/A,,Clear,0,2013-04-02 20:16:00
12:36 PM,-5.8,-9999,N/A,30.25,10.0,Calm,Calm,-,N/A,,Clear,0,2013-04-02 20:36:00
12:56 PM,-5.8,-9999,N/A,30.25,10.0,Calm,Calm,-,N/A,,Clear,0,2013-04-02 20:56:00
1:16 PM,-2.2,-27.4,29,30.26,10.0,Calm,Calm,-,N/A,,Clear,0,2013-04-02 21:16:00
1:36 PM,-2.2,-22.0,39,30.25,10.0,Calm,Calm,-,N/A,,Clear,0,2013-04-02 21:36:00
1:56 PM,-0.4,-20.2,39,30.26,10.0,Calm,Calm,-,N/A,,Clear,0,2013-04-02 21:56:00
2:16 PM,-0.4,-20.2,39,30.26,10.0,Calm,Calm,-,N/A,,Clear,0,2013-04-02 22:16:00
2:36 PM,1.4,-16.6,43,30.26,10.0,Calm,Calm,-,N/A,,Clear,0,2013-04-02 22:36:00
2:56 PM,-0.4,-13.0,55,30.27,10.0,Calm,Calm,-,N/A,,Clear,0,2013-04-02 22:56:00
3:16 PM,1.4,-9.4,61,30.27,10.0,Calm,Calm,-,N/A,,Clear,0,2013-04-02 23:16:00
3:36 PM,3.2,-7.6,61,30.26,10.0,Calm,Calm,-,N/A,,Clear,0,2013-04-02 23:36:00
3:56 PM,1.4,-7.6,66,30.26,10.0,North,3.5,-,N/A,,Clear,350,2013-04-02 23:56:00
4:16 PM,5.0,-4.0,66,30.26,10.0,North,3.5,-,N/A,,Clear,360,2013-04-03 00:16:00
4:36 PM,5.0,-2.2,72,30.26,10.0,NNE,5.8,-,N/A,,Clear,20,2013-04-03 00:36:00
4:56 PM,5.0,-27.4,21,30.26,10.0,NNE,6.9,-,N/A,,Clear,30,2013-04-03 00:56:00
5:16 PM,6.8,-20.2,28,30.26,10.0,NE,5.8,-,N/A,,Clear,40,2013-04-03 01:16:00
5:36 PM,6.8,-14.8,37,30.26,10.0,NNE,4.6,-,N/A,,Mostly Cloudy,30,2013-04-03 01:36:00
5:56 PM,6.8,-11.2,44,30.27,10.0,NE,5.8,-,N/A,,Scattered Clouds,40,2013-04-03 01:56:00
6:16 PM,6.8,-7.6,52,30.27,10.0,NE,4.6,-,N/A,,Partly Cloudy,40,2013-04-03 02:16:00
6:36 PM,6.8,-4.0,61,30.27,10.0,NE,3.5,-,N/A,,Partly Cloudy,40,2013-04-03 02:36:00
6:56 PM,8.6,-0.4,67,30.27,10.0,NE,3.5,-,N/A,,Clear,40,2013-04-03 02:56:00
7:16 PM,6.8,-0.4,72,30.27,10.0,NE,3.5,-,N/A,,Clear,40,2013-04-03 03:16:00
7:36 PM,8.6,-0.4,67,30.27,10.0,East,4.6,-,N/A,,Clear,80,2013-04-03 03:36:00
7:56 PM,6.8,-23.8,23,30.26,10.0,Calm,Calm,-,N/A,,Clear,0,2013-04-03 03:56:00
8:16 PM,5.0,-23.8,25,30.26,10.0,Calm,Calm,-,N/A,,Clear,0,2013-04-03 04:16:00
8:36 PM,3.2,-18.4,36,30.27,10.0,Calm,Calm,-,N/A,,Clear,0,2013-04-03 04:36:00
8:56 PM,3.2,-16.6,39,30.27,10.0,Calm,Calm,-,N/A,,Clear,0,2013-04-03 04:56:00
9:16 PM,3.2,-11.2,51,30.27,10.0,East,3.5,-,N/A,,Clear,80,2013-04-03 05:16:00
9:36 PM,1.4,-11.2,56,30.28,10.0,ENE,3.5,-,N/A,,Clear,70,2013-04-03 05:36:00
9:56 PM,3.2,-9.4,56,30.28,10.0,East,3.5,-,N/A,,Clear,90,2013-04-03 05:56:00
10:16 PM,1.4,-7.6,66,30.28,10.0,East,4.6,-,N/A,,Clear,90,2013-04-03 06:16:00
10:36 PM,3.2,-2.2,78,30.28,10.0,East,4.6,-,N/A,,Clear,80,2013-04-03 06:36:00
10:56 PM,1.4,-0.4,92,30.29,10.0,East,3.5,-,N/A,,Mostly Cloudy,80,2013-04-03 06:56:00
11:16 PM,1.4,-38.2,14,30.29,10.0,ENE,4.6,-,N/A,,Overcast,70,2013-04-03 07:16:00
11:36 PM,1.4,-9999,N/A,30.30,10.0,NE,6.9,-,N/A,,Overcast,50,2013-04-03 07:36:00
11:56 PM,1.4,-25.6,27,30.30,10.0,East,4.6,-,N/A,,Overcast,80,2013-04-03 07:56:00